Weather in Zverevo

Russia / Rostov Oblast     48°01′42″N   40°07′23″E
temp.,
°C
wind,
m/s
gust,
m/s
humid.,
%
clouds,
%
prec.,
mm/h
press.,
hPa
HPBL,
m
21 january, fri
fri2100:00−8s4109765 0.0 1018169
03:00−7sse51293100 0.0 1017261
06:00−5sse71496100 0.2 1014378
09:00−2sse81798100 2.0 1012741
12:00+1ssw81598100 1.1 1010712
15:00+1sw61395100 1.1 1010648
18:000wsw4998100 0.8 1011471
21:00−3wsw3693100 0.9 1013132
22 january, sat
sat2200:00−4sw3695100 0.0 1014143
03:00−4sw3693100 0.0 1014143
06:00−5ssw369295 0.0 1013119
09:00−5ssw4799100 0.0 1015154
12:00−2ssw5993100 0.0 1015673
15:00−2sw478448 0.0 1015318
18:00−6s2292100 0.0 101723
21:00−7ssw2299100 0.0 101817
23 january, sun
sun2300:00−5sw1198100 0.0 101811
03:00−5ne2294100 0.0 101719
06:00−5ne3796100 0.0 1017171
09:00−4ne61292100 0.1 1017438
12:00−3nne71496100 0.7 1015616
15:00−2nne71196100 2.9 1014498
18:00−2ne5998100 0.6 1014414
21:000e41099100 2.1 1014494
24 january, mon
mon2400:000e41099100 3.8 1015471
03:00−1e51097100 5.2 1016353
06:00−2e51097100 0.3 1017351
09:00−3e4897100 0.3 1019335
12:00−3ene5895100 0.1 1020351
15:00−2ene5997100 0.9 1019424
18:00−3ene51197100 1.3 1020440
21:00−3e41097100 2.1 1020402
25 january, tue
tue2500:00−3e3898100 0.4 1021238
03:00−2se2499100 0.6 1021381
06:00−2sw2498100 0.1 1022206
09:00−2ssw2597100 0.1 1023284
12:00−1sw3589100 0.1 1023677
15:00−1sw4593100 0.1 1023474
18:00−2wsw2595100 0.1 1024228
21:00−3sw019575 0.1 102416